HUANJING 1B (HJ-1B)

Last updated on Mon Oct 14 2024 00:02:24 GMT+0000 (Coordinated Universal Time)

1 33321U 08041B 24287.50699134 .00004063 00000+0 52453-3 0 9999 2 33321 97.6285 293.2548 0038841 31.4348 328.9175 14.80964487867884
UTC large
Height (km)
Speed (km/s)
/
Latitude / Longitude
Inclination (degrees)
Orbital Period (minutes)
Azimuth
Elevation
Range (km)
Doppler Factor

Next 0 passes for location: London (51.5072 / 0.1276)

Sorry there are no passes over London.